Content
SEND FEEDBACK

Daily
Averages
Monthly
Summary
United States of America

LARIMORE, NORTH DAKOTA


Home > North America > United States > North Dakota
Elevation: 1124 feet     Latitude: 47 57N     Longitude: 097 40W

WEATHER
 
SELECT A DAY
Number of Records: 198,336;   Date Range: 1/1/95 - 8/28/14
 
SHARE

PRINT THIS DATA

[ ← Previous Day ]
WEATHER ALMANAC - JUNE 7, 2014
[ Next Day → ]
[ °C ]   °F
Weather ElementAverageHighLow
Temperature61.7 °F71.1 °F (3:53 pm)52 °F (11:53 pm)
Dewpoint42.5 °F48.2 °F (3:53 am)33.1 °F (12:53 pm)
Humidity53.7 %82 % (3:53 am)27 % (12:53 pm)
Barometer30.08 in30.11 in (6:53 am)30.04 in (6:53 pm)
Wind Speed5.4 mph15 mph (2:53 pm)
Wind Gust20.7 mph (10:53 am)
Weather ElementAverage
Visibility10 mi
Wind DirectionSW (227.4 °)

Weather ElementTotal
Precipitation---
Heating Degree Days3.5 (Base 65)
Growing Degree Days11.6 (Base 50)
Averaged from 23 records on June 7, 2014
WEATHER CONDITIONS BREAKOUT
WIND DIRECTION BREAKOUT
WEATHER BY HOUR - JUNE 7, 2014
[ °C ]   °F
Local TimeTemperatureDewpointHumidityBarometerVisibilityWind DirectionWind SpeedGust SpeedPrecipitationEventsConditions
1:53 AM55.0 °F46.9 °F74 %30.07 in10.0 miWest (270°)4.6 mphOvercast
2:53 AM54.0 °F48.0 °F80 %30.07 in10.0 miWNW (290°)3.5 mphOvercast
3:53 AM53.6 °F48.2 °F82 %30.08 in10.0 miCalmOvercast
4:53 AM53.1 °F46.9 °F80 %30.10 in10.0 miWNW (290°)3.5 mphOvercast
5:53 AM53.1 °F46.9 °F80 %30.10 in10.0 miCalmMostly Cloudy
6:53 AM54.0 °F48.0 °F80 %30.11 in10.0 miCalmScattered Clouds
7:53 AM57.9 °F46.0 °F65 %30.11 in10.0 miWNW (300°)3.5 mphMostly Cloudy
8:53 AM62.1 °F46.0 °F56 %30.11 in10.0 miCalmScattered Clouds
9:53 AM64.4 °F44.6 °F49 %30.10 in10.0 miNW (320°)6.9 mphScattered Clouds
10:53 AM66.9 °F39.0 °F36 %30.09 in10.0 miNNW (330°)8.1 mph20.7 mphScattered Clouds
11:53 AM66.9 °F35.1 °F31 %30.08 in10.0 miNW (310°)11.5 mph19.6 mphScattered Clouds
12:53 PM68.0 °F33.1 °F27 %30.07 in10.0 miWNW (300°)8.1 mph17.3 mphScattered Clouds
1:53 PM70.0 °F36.0 °F29 %30.06 in10.0 miNW (310°)9.2 mphMostly Cloudy
2:53 PM70.0 °F37.0 °F30 %30.06 in10.0 miWNW (300°)15.0 mph19.6 mphMostly Cloudy
3:53 PM71.1 °F37.9 °F30 %30.05 in10.0 miWNW (290°)10.4 mph16.1 mphScattered Clouds
4:53 PM69.1 °F37.9 °F32 %30.05 in10.0 miNW (310°)10.4 mphMostly Cloudy
5:53 PM68.0 °F37.9 °F33 %30.05 in10.0 miNW (310°)6.9 mphMostly Cloudy
6:53 PM69.1 °F39.9 °F35 %30.04 in10.0 miNNW (330°)9.2 mphScattered Clouds
7:53 PM66.9 °F43.0 °F42 %30.05 in10.0 miNW (310°)4.6 mphPartly Cloudy
8:53 PM63.0 °F46.0 °F54 %30.06 in10.0 miNW (320°)4.6 mphPartly Cloudy
9:53 PM55.9 °F46.9 °F72 %30.07 in10.0 miNNW (340°)4.6 mphPartly Cloudy
10:53 PM55.0 °F44.1 °F67 %30.08 in10.0 miCalmClear
11:53 PM52.0 °F43.0 °F71 %30.09 in10.0 miCalmClear
Hourly data recorded from KGFK, located miles away from Larimore, North Dakota







STORIES FROM OUR PARTNERS